User: anonymous   Login
Location: Vancouver
(49.2500°N, 123.1330°W)
Time: 09:55:43
(UTC-07:00)
Language:

CZ-2C R/B - Orbit

View from above orbital plane
View from above orbital plane
View from above satellite
View from above satellite

Ground track
Ground track

The orbit data is extracted from the following two-line orbital elements,

1 28480U 04046B   15241.24266079  .00000022  00000-0  23829-4 0  9997
2 28480 098.1507 010.0217 0142318 007.3960 051.0139 14.25524901560495
Epoch (UTC): 29 August 2015 05:49:25
Eccentricity: 0.0142318
inclination: 98.1507°
perigee height: 704 km
apogee height: 909 km
right ascension of ascending node: 10.0217°
argument of perigee: 7.3960°
revolutions per day: 14.25524901
mean anomaly at epoch: 51.0139°
orbit number at epoch: 56049

The dashed part of the orbit path shows where the satellite is in the earth's shadow,  

DLR